Regional Weather Roundup
Issued by NWS

Home | Current Version | Previous Version | Graphics & Text | Print | Product List | Glossary On
Versions: 1 2 3 4 5 6 7 8 9 10 11 12 13 14 15 16 17 18 19 20 21 22 23 24 25 26 27 28 29 30 31 32 33 34 35 36 37 38 39 40 41 42 43 44 45 46 47 48 49 50
000
ASUS43 KLMK 190410
RWRKY
NATIONAL WEATHER SERVICE LOUISVILLE KY
1100 PM EST SAT NOV 18 2017

NOTE "FAIR" INDICATES FEW OR NO CLOUDS BELOW 12,000 FEET
WITH NO SIGNIFICANT WEATHER AND/OR OBSTRUCTIONS TO VISIBILITY.

KYZ001>023-026-027-061>063-070>075-190500-
WESTERN AND SOUTH CENTRAL KENTUCKY

CITY           SKY/WX    TMP DP  RH WIND       PRES   REMARKS
PADUCAH        CLEAR     44  33  65 NW8       29.98R
HENDERSON      CLOUDY    43  35  73 NW18G26   29.93R
OWENSBORO      CLOUDY    43  39  86 NW14G24   29.90R
HOPKINSVILLE   CLOUDY    44  38  77 NW14      29.94R
BOWLING GREEN  CLOUDY    43  39  86 W12G21    29.91R
GLASGOW        CLOUDY    41  37  85 W12G23    29.88R
$$

KYZ024-025-028>034-038-045-046-053-190500-
NORTH CENTRAL KENTUCKY

CITY           SKY/WX    TMP DP  RH WIND       PRES   REMARKS
LOUISVILLE/SDF CLOUDY    42  37  82 NW17G31   29.80R
LOUISVILLE/LOU CLOUDY    41  39  93 W14G29    29.80R
FORT KNOX      CLOUDY    40  37  92 W13G23    29.81R WCI  32
$$

KYZ035>037-039>044-047>052-055>060-089>105-190500-
NORTHEAST KENTUCKY

CITY           SKY/WX    TMP DP  RH WIND       PRES   REMARKS
LEXINGTON      LGT RAIN  42  37  82 W20G33    29.73R
COVINGTON      LGT RAIN  42  41  96 W16G26    29.67R
FRANKFORT      CLOUDY    41  36  82 W13G23    29.74R
$$

KYZ054-064>069-076>088-106>120-190500-
SOUTHEAST KENTUCKY

CITY           SKY/WX    TMP DP  RH WIND       PRES   REMARKS
JACKSON        LGT RAIN  45  41  86 W18G37    29.62R
LONDON         LGT RAIN  43  41  93 W22G36    29.71R FOG
SOMERSET       DRIZZLE   41  41 100 W12G22    29.78R
MIDDLESBORO    CLOUDY    48  44  84 NW14G31   29.67R
MONTICELLO     LGT RAIN  42  40  92 W20G28    29.82R FOG
$$




USA.gov is the U.S. government's official web portal to all federal, state and local government web resources and services.